Time,TemperatureF,DewpointF,PressureIn,WindDirection,WindDirectionDegrees,WindSpeedMPH,WindSpeedGustMPH,Humidity,HourlyPrecipIn,Conditions,Clouds,dailyrainin,SoftwareType,DateUTC
2013-05-30 00:00:00,76.0,63.8,29.29,ENE,67,0.0,7.0,66,0.00,,,0.00,Weather View 32 v70,2013-05-30 04:00:00,
2013-05-30 00:01:00,76.0,63.8,29.29,ENE,67,0.0,7.0,66,0.00,,,0.00,Weather View 32 v70,2013-05-30 04:01:00,
2013-05-30 00:06:00,76.0,64.2,29.30,SE,135,0.0,7.0,67,0.00,,,0.00,Weather View 32 v70,2013-05-30 04:06:00,
2013-05-30 00:11:00,76.0,64.2,29.29,WSW,247,0.0,7.0,67,0.00,,,0.00,Weather View 32 v70,2013-05-30 04:11:00,
2013-05-30 00:16:00,76.0,64.2,29.29,SE,135,1.0,7.0,67,0.00,,,0.00,Weather View 32 v70,2013-05-30 04:16:00,
2013-05-30 00:21:00,76.0,64.2,29.30,SE,135,2.0,7.0,67,0.00,,,0.00,Weather View 32 v70,2013-05-30 04:21:00,
2013-05-30 00:26:00,76.0,64.2,29.30,SSW,202,0.0,7.0,67,0.00,,,0.00,Weather View 32 v70,2013-05-30 04:26:00,
2013-05-30 00:31:00,76.0,64.2,29.30,SW,225,0.0,7.0,67,0.00,,,0.00,Weather View 32 v70,2013-05-30 04:31:00,
2013-05-30 00:36:00,76.0,64.2,29.30,SE,135,4.0,7.0,67,0.00,,,0.00,Weather View 32 v70,2013-05-30 04:36:00,
2013-05-30 00:41:00,75.0,62.8,29.30,SSW,202,2.0,7.0,66,0.00,,,0.00,Weather View 32 v70,2013-05-30 04:41:00,
2013-05-30 00:46:00,75.0,62.8,29.33,West,270,0.0,7.0,66,0.00,,,0.00,Weather View 32 v70,2013-05-30 04:46:00,
2013-05-30 00:51:00,75.0,63.3,29.30,West,270,0.0,7.0,67,0.00,,,0.00,Weather View 32 v70,2013-05-30 04:51:00,
2013-05-30 00:56:00,75.0,63.3,29.30,SW,225,0.0,8.0,67,0.00,,,0.00,Weather View 32 v70,2013-05-30 04:56:00,
2013-05-30 01:01:00,75.0,62.8,29.30,SW,225,2.0,8.0,66,0.00,,,0.00,Weather View 32 v70,2013-05-30 05:01:00,
2013-05-30 01:06:00,75.0,63.3,29.30,SW,225,0.0,8.0,67,0.00,,,0.00,Weather View 32 v70,2013-05-30 05:06:00,
2013-05-30 01:11:00,75.0,63.3,29.30,SSW,202,0.0,8.0,67,0.00,,,0.00,Weather View 32 v70,2013-05-30 05:11:00,
2013-05-30 01:16:00,75.0,63.3,29.30,SE,135,0.0,8.0,67,0.00,,,0.00,Weather View 32 v70,2013-05-30 05:16:00,
2013-05-30 01:21:00,74.0,62.7,29.31,SW,225,0.0,8.0,68,0.00,,,0.00,Weather View 32 v70,2013-05-30 05:21:00,
2013-05-30 01:26:00,74.0,62.7,29.31,SSE,157,0.0,8.0,68,0.00,,,0.00,Weather View 32 v70,2013-05-30 05:26:00,
2013-05-30 01:31:00,74.0,62.7,29.31,South,180,0.0,8.0,68,0.00,,,0.00,Weather View 32 v70,2013-05-30 05:31:00,
2013-05-30 01:36:00,74.0,62.7,29.31,SE,135,0.0,8.0,68,0.00,,,0.00,Weather View 32 v70,2013-05-30 05:36:00,
2013-05-30 01:41:00,74.0,63.1,29.31,SSE,157,0.0,8.0,69,0.00,,,0.00,Weather View 32 v70,2013-05-30 05:41:00,
2013-05-30 01:46:00,74.0,63.1,29.31,SW,225,0.0,8.0,69,0.00,,,0.00,Weather View 32 v70,2013-05-30 05:46:00,
2013-05-30 01:51:00,74.0,63.1,29.31,SSE,157,0.0,8.0,69,0.00,,,0.00,Weather View 32 v70,2013-05-30 05:51:00,
2013-05-30 01:56:00,74.0,63.1,29.31,SSW,202,1.0,7.0,69,0.00,,,0.00,Weather View 32 v70,2013-05-30 05:56:00,
2013-05-30 02:01:00,74.0,63.1,29.31,SW,225,0.0,6.0,69,0.00,,,0.00,Weather View 32 v70,2013-05-30 06:01:00,
2013-05-30 02:06:00,73.0,62.2,29.31,South,180,0.0,6.0,69,0.00,,,0.00,Weather View 32 v70,2013-05-30 06:06:00,
2013-05-30 02:11:00,73.0,62.6,29.31,SSW,202,1.0,6.0,70,0.00,,,0.00,Weather View 32 v70,2013-05-30 06:11:00,
2013-05-30 02:16:00,73.0,62.6,29.31,ESE,112,0.0,6.0,70,0.00,,,0.00,Weather View 32 v70,2013-05-30 06:16:00,
2013-05-30 02:21:00,73.0,63.0,29.31,South,180,0.0,6.0,71,0.00,,,0.00,Weather View 32 v70,2013-05-30 06:21:00,
2013-05-30 02:26:00,73.0,63.0,29.31,SSW,202,0.0,6.0,71,0.00,,,0.00,Weather View 32 v70,2013-05-30 06:26:00,
2013-05-30 02:31:00,73.0,63.0,29.31,SE,135,0.0,6.0,71,0.00,,,0.00,Weather View 32 v70,2013-05-30 06:31:00,
2013-05-30 02:36:00,73.0,63.0,29.31,SW,225,0.0,6.0,71,0.00,,,0.00,Weather View 32 v70,2013-05-30 06:36:00,
2013-05-30 02:41:00,73.0,63.0,29.31,SSE,157,0.0,6.0,71,0.00,,,0.00,Weather View 32 v70,2013-05-30 06:41:00,
2013-05-30 02:46:00,72.0,62.0,29.31,South,180,0.0,6.0,71,0.00,,,0.00,Weather View 32 v70,2013-05-30 06:46:00,
2013-05-30 02:51:00,72.0,62.0,29.31,SSE,157,0.0,6.0,71,0.00,,,0.00,Weather View 32 v70,2013-05-30 06:51:00,
2013-05-30 02:56:00,72.0,62.4,29.34,SSW,202,1.0,6.0,72,0.00,,,0.00,Weather View 32 v70,2013-05-30 06:56:00,
2013-05-30 03:01:00,72.0,63.2,29.31,SSW,202,0.0,4.0,74,0.00,,,0.00,Weather View 32 v70,2013-05-30 07:01:00,
2013-05-30 03:06:00,72.0,63.6,29.31,SSE,157,0.0,4.0,75,0.00,,,0.00,Weather View 32 v70,2013-05-30 07:06:00,
2013-05-30 03:11:00,72.0,63.6,29.31,SSE,157,0.0,4.0,75,0.00,,,0.00,Weather View 32 v70,2013-05-30 07:11:00,
2013-05-30 03:16:00,71.0,62.6,29.31,SW,225,0.0,4.0,75,0.00,,,0.00,Weather View 32 v70,2013-05-30 07:16:00,
2013-05-30 03:21:00,71.0,63.0,29.31,SSE,157,0.0,4.0,76,0.00,,,0.00,Weather View 32 v70,2013-05-30 07:21:00,
2013-05-30 03:26:00,71.0,63.4,29.31,South,180,0.0,4.0,77,0.00,,,0.00,Weather View 32 v70,2013-05-30 07:26:00,
2013-05-30 03:31:00,71.0,63.8,29.31,South,180,0.0,4.0,78,0.00,,,0.00,Weather View 32 v70,2013-05-30 07:31:00,
2013-05-30 03:36:00,71.0,63.8,29.30,South,180,0.0,4.0,78,0.00,,,0.00,Weather View 32 v70,2013-05-30 07:36:00,
2013-05-30 03:41:00,70.0,62.8,29.30,South,180,0.0,4.0,78,0.00,,,0.00,Weather View 32 v70,2013-05-30 07:41:00,
2013-05-30 03:46:00,70.0,63.5,29.31,South,180,0.0,4.0,80,0.00,,,0.00,Weather View 32 v70,2013-05-30 07:46:00,
2013-05-30 03:51:00,69.0,62.6,29.30,South,180,0.0,4.0,80,0.00,,,0.00,Weather View 32 v70,2013-05-30 07:51:00,
2013-05-30 03:56:00,69.0,63.3,29.31,SE,135,0.0,4.0,82,0.00,,,0.00,Weather View 32 v70,2013-05-30 07:56:00,
2013-05-30 04:01:00,69.0,63.3,29.31,SE,135,0.0,1.0,82,0.00,,,0.00,Weather View 32 v70,2013-05-30 08:01:00,
2013-05-30 04:06:00,68.0,62.6,29.31,SE,135,0.0,0.0,83,0.00,,,0.00,Weather View 32 v70,2013-05-30 08:06:00,
2013-05-30 04:11:00,68.0,63.3,29.31,SE,135,0.0,0.0,85,0.00,,,0.00,Weather View 32 v70,2013-05-30 08:11:00,
2013-05-30 04:16:00,68.0,63.6,29.31,SE,135,0.0,0.0,86,0.00,,,0.00,Weather View 32 v70,2013-05-30 08:16:00,
2013-05-30 04:21:00,67.0,62.7,29.31,SE,135,0.0,0.0,86,0.00,,,0.00,Weather View 32 v70,2013-05-30 08:21:00,
2013-05-30 04:26:00,67.0,63.6,29.31,SE,135,0.0,0.0,89,0.00,,,0.00,Weather View 32 v70,2013-05-30 08:26:00,
2013-05-30 04:31:00,67.0,63.6,29.31,SE,135,0.0,0.0,89,0.00,,,0.00,Weather View 32 v70,2013-05-30 08:31:00,
2013-05-30 04:36:00,67.0,63.6,29.31,SE,135,0.0,0.0,89,0.00,,,0.00,Weather View 32 v70,2013-05-30 08:36:00,
2013-05-30 04:41:00,67.0,64.0,29.32,SE,135,0.0,0.0,90,0.00,,,0.00,Weather View 32 v70,2013-05-30 08:41:00,
2013-05-30 04:46:00,66.0,63.0,29.32,SE,135,0.0,0.0,90,0.00,,,0.00,Weather View 32 v70,2013-05-30 08:46:00,
2013-05-30 04:51:00,66.0,63.3,29.32,SE,135,0.0,0.0,91,0.00,,,0.00,Weather View 32 v70,2013-05-30 08:51:00,
2013-05-30 04:56:00,66.0,63.3,29.32,SE,135,0.0,0.0,91,0.00,,,0.00,Weather View 32 v70,2013-05-30 08:56:00,
2013-05-30 05:01:00,66.0,63.6,29.32,SE,135,0.0,0.0,92,0.00,,,0.00,Weather View 32 v70,2013-05-30 09:01:00,
2013-05-30 05:06:00,65.0,62.9,29.34,SE,135,0.0,0.0,93,0.00,,,0.00,Weather View 32 v70,2013-05-30 09:06:00,
2013-05-30 05:11:00,65.0,63.2,29.32,SE,135,0.0,0.0,94,0.00,,,0.00,Weather View 32 v70,2013-05-30 09:11:00,
2013-05-30 05:16:00,65.0,63.2,29.32,SE,135,0.0,0.0,94,0.00,,,0.00,Weather View 32 v70,2013-05-30 09:16:00,
2013-05-30 05:21:00,65.0,63.5,29.32,SE,135,0.0,0.0,95,0.00,,,0.00,Weather View 32 v70,2013-05-30 09:21:00,
2013-05-30 05:26:00,65.0,63.5,29.32,SE,135,0.0,0.0,95,0.00,,,0.00,Weather View 32 v70,2013-05-30 09:26:00,
2013-05-30 05:31:00,65.0,63.8,29.32,SE,135,0.0,0.0,96,0.00,,,0.00,Weather View 32 v70,2013-05-30 09:31:00,
2013-05-30 05:36:00,65.0,63.8,29.32,SE,135,0.0,0.0,96,0.00,,,0.00,Weather View 32 v70,2013-05-30 09:36:00,
2013-05-30 05:41:00,65.0,63.8,29.32,SE,135,0.0,0.0,96,0.00,,,0.00,Weather View 32 v70,2013-05-30 09:41:00,
2013-05-30 05:46:00,65.0,64.1,29.32,SE,135,0.0,0.0,97,0.00,,,0.00,Weather View 32 v70,2013-05-30 09:46:00,
2013-05-30 05:51:00,65.0,64.1,29.32,SE,135,0.0,0.0,97,0.00,,,0.00,Weather View 32 v70,2013-05-30 09:51:00,
2013-05-30 05:56:00,65.0,64.1,29.32,SE,135,0.0,0.0,97,0.00,,,0.00,Weather View 32 v70,2013-05-30 09:56:00,
2013-05-30 06:01:00,65.0,64.4,29.32,SE,135,0.0,0.0,98,0.00,,,0.00,Weather View 32 v70,2013-05-30 10:01:00,
2013-05-30 06:06:00,65.0,64.4,29.32,SE,135,0.0,0.0,98,0.00,,,0.00,Weather View 32 v70,2013-05-30 10:06:00,
2013-05-30 06:11:00,65.0,64.4,29.33,SE,135,0.0,0.0,98,0.00,,,0.00,Weather View 32 v70,2013-05-30 10:11:00,
2013-05-30 06:16:00,65.0,64.4,29.33,SE,135,0.0,0.0,98,0.00,,,0.00,Weather View 32 v70,2013-05-30 10:16:00,
2013-05-30 06:21:00,65.0,64.4,29.33,SE,135,0.0,0.0,98,0.00,,,0.00,Weather View 32 v70,2013-05-30 10:21:00,
2013-05-30 06:26:00,66.0,65.4,29.33,SE,135,0.0,0.0,98,0.00,,,0.00,Weather View 32 v70,2013-05-30 10:26:00,
2013-05-30 06:31:00,66.0,65.4,29.34,SE,135,0.0,0.0,98,0.00,,,0.00,Weather View 32 v70,2013-05-30 10:31:00,
2013-05-30 06:36:00,66.0,65.4,29.34,SE,135,0.0,0.0,98,0.00,,,0.00,Weather View 32 v70,2013-05-30 10:36:00,
2013-05-30 06:41:00,67.0,66.4,29.34,SE,135,0.0,0.0,98,0.00,,,0.00,Weather View 32 v70,2013-05-30 10:41:00,
2013-05-30 06:46:00,68.0,67.4,29.34,SE,135,0.0,0.0,98,0.00,,,0.00,Weather View 32 v70,2013-05-30 10:46:00,
2013-05-30 06:51:00,68.0,67.4,29.34,SE,135,0.0,0.0,98,0.00,,,0.00,Weather View 32 v70,2013-05-30 10:51:00,
2013-05-30 06:56:00,69.0,68.1,29.34,SE,135,0.0,0.0,97,0.00,,,0.00,Weather View 32 v70,2013-05-30 10:56:00,
2013-05-30 07:01:00,70.0,69.1,29.35,SE,135,0.0,0.0,97,0.00,,,0.00,Weather View 32 v70,2013-05-30 11:01:00,
2013-05-30 07:06:00,70.0,68.8,29.35,SE,135,0.0,0.0,96,0.00,,,0.00,Weather View 32 v70,2013-05-30 11:06:00,
2013-05-30 07:11:00,71.0,68.9,29.35,SE,135,0.0,0.0,93,0.00,,,0.00,Weather View 32 v70,2013-05-30 11:11:00,
2013-05-30 07:16:00,72.0,68.6,29.35,SSW,202,0.0,0.0,89,0.00,,,0.00,Weather View 32 v70,2013-05-30 11:16:00,
2013-05-30 07:21:00,73.0,67.9,29.35,SSW,202,0.0,0.0,84,0.00,,,0.00,Weather View 32 v70,2013-05-30 11:21:00,
2013-05-30 07:26:00,73.0,67.2,29.35,SSW,202,0.0,0.0,82,0.00,,,0.00,Weather View 32 v70,2013-05-30 11:26:00,
2013-05-30 07:31:00,74.0,66.3,29.36,SSW,202,0.0,0.0,77,0.00,,,0.00,Weather View 32 v70,2013-05-30 11:31:00,
2013-05-30 07:36:00,74.0,64.8,29.36,SSW,202,0.0,0.0,73,0.00,,,0.00,Weather View 32 v70,2013-05-30 11:36:00,
2013-05-30 07:41:00,75.0,64.9,29.36,SSW,202,3.0,0.0,71,0.00,,,0.00,Weather View 32 v70,2013-05-30 11:41:00,
2013-05-30 07:46:00,75.0,64.5,29.36,SSW,202,3.0,4.0,70,0.00,,,0.00,Weather View 32 v70,2013-05-30 11:46:00,
2013-05-30 07:51:00,75.0,64.5,29.36,SSW,202,2.0,4.0,70,0.00,,,0.00,Weather View 32 v70,2013-05-30 11:51:00,
2013-05-30 07:56:00,75.0,64.5,29.36,SSW,202,0.0,4.0,70,0.00,,,0.00,Weather View 32 v70,2013-05-30 11:56:00,
2013-05-30 08:01:00,75.0,64.1,29.36,SSW,202,0.0,4.0,69,0.00,,,0.00,Weather View 32 v70,2013-05-30 12:01:00,
2013-05-30 08:06:00,76.0,65.9,29.36,SSW,202,0.0,4.0,71,0.00,,,0.00,Weather View 32 v70,2013-05-30 12:06:00,
2013-05-30 08:11:00,76.0,65.5,29.36,SSW,202,0.0,4.0,70,0.00,,,0.00,Weather View 32 v70,2013-05-30 12:11:00,
2013-05-30 08:16:00,77.0,65.2,29.36,SSW,202,0.0,4.0,67,0.00,,,0.00,Weather View 32 v70,2013-05-30 12:16:00,
2013-05-30 08:21:00,78.0,65.2,29.36,SSW,202,0.0,4.0,65,0.00,,,0.00,Weather View 32 v70,2013-05-30 12:21:00,
2013-05-30 08:27:00,78.0,65.2,29.36,SSW,202,0.0,4.0,65,0.00,,,0.00,Weather View 32 v70,2013-05-30 12:27:00,
2013-05-30 08:32:00,79.0,64.8,29.36,West,270,0.0,4.0,62,0.00,,,0.00,Weather View 32 v70,2013-05-30 12:32:00,
2013-05-30 08:37:00,80.0,64.8,29.36,SSW,202,0.0,4.0,60,0.00,,,0.00,Weather View 32 v70,2013-05-30 12:37:00,
2013-05-30 08:42:00,80.0,64.3,29.37,SSW,202,0.0,4.0,59,0.00,,,0.00,Weather View 32 v70,2013-05-30 12:42:00,
2013-05-30 08:47:00,80.0,64.8,29.37,SSW,202,0.0,3.0,60,0.00,,,0.00,Weather View 32 v70,2013-05-30 12:47:00,
2013-05-30 08:52:00,80.0,64.3,29.37,South,180,0.0,3.0,59,0.00,,,0.00,Weather View 32 v70,2013-05-30 12:52:00,
2013-05-30 08:57:00,81.0,65.3,29.36,ENE,67,0.0,3.0,59,0.00,,,0.00,Weather View 32 v70,2013-05-30 12:57:00,
2013-05-30 09:02:00,81.0,66.2,29.36,NE,45,0.0,3.0,61,0.00,,,0.00,Weather View 32 v70,2013-05-30 13:02:00,
2013-05-30 09:07:00,82.0,65.2,29.36,NE,45,0.0,1.0,57,0.00,,,0.00,Weather View 32 v70,2013-05-30 13:07:00,
2013-05-30 09:12:00,82.0,65.2,29.37,NE,45,0.0,1.0,57,0.00,,,0.00,Weather View 32 v70,2013-05-30 13:12:00,
2013-05-30 09:17:00,82.0,64.2,29.36,SW,225,0.0,1.0,55,0.00,,,0.00,Weather View 32 v70,2013-05-30 13:17:00,
2013-05-30 09:22:00,81.0,63.8,29.36,SW,225,0.0,1.0,56,0.00,,,0.00,Weather View 32 v70,2013-05-30 13:22:00,
2013-05-30 09:27:00,81.0,64.3,29.40,WSW,247,0.0,1.0,57,0.00,,,0.00,Weather View 32 v70,2013-05-30 13:27:00,
2013-05-30 09:32:00,81.0,64.3,29.36,SSW,202,0.0,0.0,57,0.00,,,0.00,Weather View 32 v70,2013-05-30 13:32:00,
2013-05-30 09:37:00,80.0,64.3,29.37,SW,225,0.0,0.0,59,0.00,,,0.00,Weather View 32 v70,2013-05-30 13:37:00,
2013-05-30 09:42:00,81.0,65.3,29.37,SSW,202,2.0,4.0,59,0.00,,,0.00,Weather View 32 v70,2013-05-30 13:42:00,
2013-05-30 09:47:00,81.0,64.3,29.37,SSW,202,0.0,4.0,57,0.00,,,0.00,Weather View 32 v70,2013-05-30 13:47:00,
2013-05-30 09:52:00,81.0,64.8,29.36,SSW,202,0.0,4.0,58,0.00,,,0.00,Weather View 32 v70,2013-05-30 13:52:00,
2013-05-30 09:57:00,81.0,64.8,29.36,SW,225,0.0,4.0,58,0.00,,,0.00,Weather View 32 v70,2013-05-30 13:57:00,
2013-05-30 10:02:00,81.0,65.8,29.36,West,270,0.0,4.0,60,0.00,,,0.00,Weather View 32 v70,2013-05-30 14:02:00,
2013-05-30 10:07:00,81.0,65.3,29.36,SW,225,0.0,4.0,59,0.00,,,0.00,Weather View 32 v70,2013-05-30 14:07:00,
2013-05-30 10:12:00,81.0,65.3,29.36,SW,225,0.0,4.0,59,0.00,,,0.00,Weather View 32 v70,2013-05-30 14:12:00,
2013-05-30 10:17:00,81.0,64.3,29.37,SSE,157,0.0,4.0,57,0.00,,,0.00,Weather View 32 v70,2013-05-30 14:17:00,
2013-05-30 10:22:00,81.0,63.8,29.42,SW,225,0.0,5.0,56,0.00,,,0.00,Weather View 32 v70,2013-05-30 14:22:00,
2013-05-30 10:27:00,81.0,63.2,29.36,SW,225,0.0,5.0,55,0.00,,,0.00,Weather View 32 v70,2013-05-30 14:27:00,
2013-05-30 10:32:00,82.0,63.7,29.36,SW,225,0.0,5.0,54,0.00,,,0.00,Weather View 32 v70,2013-05-30 14:32:00,
2013-05-30 10:37:00,82.0,63.7,29.36,SSE,157,0.0,5.0,54,0.00,,,0.00,Weather View 32 v70,2013-05-30 14:37:00,
2013-05-30 10:42:00,82.0,64.2,29.36,South,180,0.0,5.0,55,0.00,,,0.00,Weather View 32 v70,2013-05-30 14:42:00,
2013-05-30 10:47:00,82.0,64.7,29.37,SSW,202,1.0,5.0,56,0.00,,,0.00,Weather View 32 v70,2013-05-30 14:47:00,
2013-05-30 10:52:00,82.0,63.7,29.37,SSW,202,0.0,5.0,54,0.00,,,0.00,Weather View 32 v70,2013-05-30 14:52:00,
2013-05-30 10:57:00,83.0,64.6,29.37,ESE,112,0.0,5.0,54,0.00,,,0.00,Weather View 32 v70,2013-05-30 14:57:00,
2013-05-30 11:02:00,84.0,63.9,29.37,SSW,202,0.0,5.0,51,0.00,,,0.00,Weather View 32 v70,2013-05-30 15:02:00,
2013-05-30 11:07:00,85.0,64.2,29.37,SE,135,0.0,5.0,50,0.00,,,0.00,Weather View 32 v70,2013-05-30 15:07:00,
2013-05-30 11:12:00,85.0,64.2,29.38,NNW,337,0.0,5.0,50,0.00,,,0.00,Weather View 32 v70,2013-05-30 15:12:00,
2013-05-30 11:17:00,86.0,63.3,29.37,SSW,202,0.0,5.0,47,0.00,,,0.00,Weather View 32 v70,2013-05-30 15:17:00,
2013-05-30 11:22:00,86.0,64.5,29.37,NNW,337,0.0,5.0,49,0.00,,,0.00,Weather View 32 v70,2013-05-30 15:22:00,
2013-05-30 11:27:00,87.0,63.6,29.37,SE,135,0.0,5.0,46,0.00,,,0.00,Weather View 32 v70,2013-05-30 15:27:00,
2013-05-30 11:32:00,87.0,64.3,29.37,ENE,67,0.0,5.0,47,0.00,,,0.00,Weather View 32 v70,2013-05-30 15:32:00,
2013-05-30 11:37:00,87.0,62.4,29.38,SSW,202,0.0,5.0,44,0.00,,,0.00,Weather View 32 v70,2013-05-30 15:37:00,
2013-05-30 11:42:00,88.0,63.9,29.37,SSW,202,0.0,5.0,45,0.00,,,0.00,Weather View 32 v70,2013-05-30 15:42:00,
2013-05-30 11:47:00,88.0,62.6,29.38,SSW,202,0.0,5.0,43,0.00,,,0.00,Weather View 32 v70,2013-05-30 15:47:00,
2013-05-30 11:52:00,88.0,61.3,29.37,WSW,247,0.0,2.0,41,0.00,,,0.00,Weather View 32 v70,2013-05-30 15:52:00,
2013-05-30 11:57:00,88.0,61.9,29.37,SSW,202,0.0,0.0,42,0.00,,,0.00,Weather View 32 v70,2013-05-30 15:57:00,
2013-05-30 12:02:00,89.0,61.4,29.37,SW,225,0.0,0.0,40,0.00,,,0.00,Weather View 32 v70,2013-05-30 16:02:00,
2013-05-30 12:07:00,89.0,62.1,29.37,SSE,157,0.0,0.0,41,0.00,,,0.00,Weather View 32 v70,2013-05-30 16:07:00,
2013-05-30 12:12:00,90.0,62.3,29.37,SW,225,0.0,0.0,40,0.00,,,0.00,Weather View 32 v70,2013-05-30 16:12:00,
2013-05-30 12:17:00,89.0,62.1,29.37,WNW,292,0.0,0.0,41,0.00,,,0.00,Weather View 32 v70,2013-05-30 16:17:00,
2013-05-30 12:22:00,90.0,61.6,29.37,WSW,247,0.0,0.0,39,0.00,,,0.00,Weather View 32 v70,2013-05-30 16:22:00,
2013-05-30 12:27:00,90.0,60.9,29.37,West,270,0.0,0.0,38,0.00,,,0.00,Weather View 32 v70,2013-05-30 16:27:00,
2013-05-30 12:32:00,90.0,61.6,29.37,SW,225,0.0,0.0,39,0.00,,,0.00,Weather View 32 v70,2013-05-30 16:32:00,
2013-05-30 12:37:00,90.0,60.9,29.37,SW,225,0.0,0.0,38,0.00,,,0.00,Weather View 32 v70,2013-05-30 16:37:00,
2013-05-30 12:42:00,91.0,61.8,29.37,WSW,247,0.0,0.0,38,0.00,,,0.00,Weather View 32 v70,2013-05-30 16:42:00,
2013-05-30 12:47:00,91.0,61.8,29.37,WSW,247,0.0,0.0,38,0.00,,,0.00,Weather View 32 v70,2013-05-30 16:47:00,
2013-05-30 12:52:00,92.0,60.3,29.43,SW,225,0.0,0.0,35,0.00,,,0.00,Weather View 32 v70,2013-05-30 16:52:00,
2013-05-30 12:57:00,91.0,61.0,29.43,SW,225,0.0,0.0,37,0.00,,,0.00,Weather View 32 v70,2013-05-30 16:57:00,
2013-05-30 13:02:00,92.0,62.6,29.37,South,180,0.0,0.0,38,0.00,,,0.00,Weather View 32 v70,2013-05-30 17:02:00,
2013-05-30 13:07:00,91.0,61.8,29.37,East,90,0.0,0.0,38,0.00,,,0.00,Weather View 32 v70,2013-05-30 17:07:00,
2013-05-30 13:12:00,92.0,64.1,29.36,North,360,0.0,0.0,40,0.00,,,0.00,Weather View 32 v70,2013-05-30 17:12:00,
2013-05-30 13:17:00,92.0,62.6,29.36,ESE,112,0.0,0.0,38,0.00,,,0.00,Weather View 32 v70,2013-05-30 17:17:00,
2013-05-30 13:22:00,91.0,61.8,29.36,SW,225,0.0,0.0,38,0.00,,,0.00,Weather View 32 v70,2013-05-30 17:22:00,
2013-05-30 13:27:00,90.0,61.6,29.36,SW,225,0.0,0.0,39,0.00,,,0.00,Weather View 32 v70,2013-05-30 17:27:00,
2013-05-30 13:32:00,90.0,62.3,29.36,SSW,202,0.0,0.0,40,0.00,,,0.00,Weather View 32 v70,2013-05-30 17:32:00,
2013-05-30 13:37:00,89.0,62.8,29.36,SSW,202,0.0,7.0,42,0.00,,,0.00,Weather View 32 v70,2013-05-30 17:37:00,
2013-05-30 13:42:00,88.0,61.9,29.36,SE,135,0.0,7.0,42,0.00,,,0.00,Weather View 32 v70,2013-05-30 17:42:00,
2013-05-30 13:47:00,88.0,63.3,29.36,SE,135,0.0,7.0,44,0.00,,,0.00,Weather View 32 v70,2013-05-30 17:47:00,
2013-05-30 13:52:00,87.0,62.4,29.35,SSE,157,0.0,7.0,44,0.00,,,0.00,Weather View 32 v70,2013-05-30 17:52:00,
2013-05-30 13:57:00,87.0,62.4,29.35,SSE,157,0.0,7.0,44,0.00,,,0.00,Weather View 32 v70,2013-05-30 17:57:00,
2013-05-30 14:02:00,88.0,65.2,29.35,SSW,202,0.0,7.0,47,0.00,,,0.00,Weather View 32 v70,2013-05-30 18:02:00,
2013-05-30 14:07:00,87.0,61.7,29.35,SSE,157,0.0,7.0,43,0.00,,,0.00,Weather View 32 v70,2013-05-30 18:07:00,
2013-05-30 14:12:00,88.0,62.6,29.35,SSE,157,0.0,7.0,43,0.00,,,0.00,Weather View 32 v70,2013-05-30 18:12:00,
2013-05-30 14:17:00,88.0,61.3,29.40,SSE,157,0.0,7.0,41,0.00,,,0.00,Weather View 32 v70,2013-05-30 18:17:00,
2013-05-30 14:22:00,88.0,61.9,29.35,ENE,67,0.0,7.0,42,0.00,,,0.00,Weather View 32 v70,2013-05-30 18:22:00,
2013-05-30 14:27:00,88.0,61.9,29.35,SE,135,0.0,7.0,42,0.00,,,0.00,Weather View 32 v70,2013-05-30 18:27:00,
2013-05-30 14:32:00,89.0,60.0,29.35,SE,135,0.0,7.0,38,0.00,,,0.00,Weather View 32 v70,2013-05-30 18:32:00,
2013-05-30 14:37:00,89.0,60.0,29.34,SSE,157,0.0,7.0,38,0.00,,,0.00,Weather View 32 v70,2013-05-30 18:37:00,
2013-05-30 14:42:00,88.0,60.6,29.34,South,180,0.0,6.0,40,0.00,,,0.00,Weather View 32 v70,2013-05-30 18:42:00,
2013-05-30 14:47:00,88.0,59.1,29.34,East,90,0.0,6.0,38,0.00,,,0.00,Weather View 32 v70,2013-05-30 18:47:00,
2013-05-30 14:52:00,88.0,59.1,29.34,SSW,202,0.0,9.0,38,0.00,,,0.00,Weather View 32 v70,2013-05-30 18:52:00,
2013-05-30 14:57:00,89.0,60.0,29.34,West,270,0.0,9.0,38,0.00,,,0.00,Weather View 32 v70,2013-05-30 18:57:00,
2013-05-30 15:02:00,89.0,60.0,29.34,SSE,157,0.0,9.0,38,0.00,,,0.00,Weather View 32 v70,2013-05-30 19:02:00,
2013-05-30 15:07:00,90.0,59.4,29.34,SW,225,0.0,9.0,36,0.00,,,0.00,Weather View 32 v70,2013-05-30 19:07:00,
2013-05-30 15:12:00,90.0,58.6,29.34,SE,135,0.0,9.0,35,0.00,,,0.00,Weather View 32 v70,2013-05-30 19:12:00,
2013-05-30 15:17:00,90.0,60.9,29.34,WSW,247,0.0,9.0,38,0.00,,,0.00,Weather View 32 v70,2013-05-30 19:17:00,
2013-05-30 15:22:00,89.0,60.0,29.34,SSW,202,4.0,9.0,38,0.00,,,0.00,Weather View 32 v70,2013-05-30 19:22:00,
2013-05-30 15:27:00,88.0,59.8,29.34,SW,225,0.0,9.0,39,0.00,,,0.00,Weather View 32 v70,2013-05-30 19:27:00,
2013-05-30 15:32:00,88.0,60.6,29.34,SW,225,0.0,9.0,40,0.00,,,0.00,Weather View 32 v70,2013-05-30 19:32:00,
2013-05-30 15:37:00,88.0,62.6,29.34,SSE,157,0.0,9.0,43,0.00,,,0.00,Weather View 32 v70,2013-05-30 19:37:00,
2013-05-30 15:42:00,90.0,62.3,29.34,SSE,157,0.0,9.0,40,0.00,,,0.00,Weather View 32 v70,2013-05-30 19:42:00,
2013-05-30 15:47:00,90.0,60.9,29.34,SW,225,0.0,9.0,38,0.00,,,0.00,Weather View 32 v70,2013-05-30 19:47:00,
2013-05-30 15:52:00,89.0,61.4,29.34,South,180,0.0,7.0,40,0.00,,,0.00,Weather View 32 v70,2013-05-30 19:52:00,
2013-05-30 15:57:00,89.0,62.1,29.39,SW,225,0.0,7.0,41,0.00,,,0.00,Weather View 32 v70,2013-05-30 19:57:00,
2013-05-30 16:02:00,89.0,62.8,29.39,WSW,247,0.0,7.0,42,0.00,,,0.00,Weather View 32 v70,2013-05-30 20:02:00,
2013-05-30 16:07:00,89.0,62.1,29.33,SSE,157,0.0,7.0,41,0.00,,,0.00,Weather View 32 v70,2013-05-30 20:07:00,
2013-05-30 16:12:00,90.0,63.0,29.33,SSE,157,0.0,7.0,41,0.00,,,0.00,Weather View 32 v70,2013-05-30 20:12:00,
2013-05-30 16:17:00,91.0,63.2,29.34,South,180,0.0,7.0,40,0.00,,,0.00,Weather View 32 v70,2013-05-30 20:17:00,
2013-05-30 16:22:00,91.0,61.8,29.33,SSW,202,0.0,7.0,38,0.00,,,0.00,Weather View 32 v70,2013-05-30 20:22:00,
2013-05-30 16:27:00,90.0,60.1,29.34,South,180,0.0,6.0,37,0.00,,,0.00,Weather View 32 v70,2013-05-30 20:27:00,
2013-05-30 16:32:00,89.0,60.0,29.34,ESE,112,0.0,6.0,38,0.00,,,0.00,Weather View 32 v70,2013-05-30 20:32:00,
2013-05-30 16:37:00,89.0,61.4,29.34,SSE,157,0.0,6.0,40,0.00,,,0.00,Weather View 32 v70,2013-05-30 20:37:00,